World > North America > United States > Wyoming > Encampment

Encampment, WY Hourly Weather Conditions

Feedback E-mail the Weather

Quick WX

Encampment, WY Weather Maps

°F °C°F °C
Encampment Weather Map
UTC Time: 2/8/2023, 17:56
Your Time:

Encampment, WY Regional Weather

Expires:202302081800;;014966
ASUS45 KCYS 081710
RWRWY 

WYOMING REGIONAL WEATHER ROUNDUP
NATIONAL WEATHER SERVICE CHEYENNE WY
1000 AM MST WED FEB 08 2023

NOTE:  "FAIR" INDICATES FEW OR NO CLOUDS BELOW 12,000 FEET
WITH NO SIGNIFICANT WEATHER AND/OR OBSTRUCTIONS TO VISIBILITY.


WYZ021-027>030-104>119-081800-
SOUTHERN WYOMING
  
CITY           SKY/WX    TMP DP  RH WIND       PRES   REMARKS
EVANSTON       FAIR      19  13  77 SW14      30.20F WCI   6          
ROCK SPRINGS   PTSUNNY   26  17  68 W22       30.15F WCI  12          
DIXON          CLOUDY    11   8  87 NW7       30.25R WCI   0          
RAWLINS        FLURRIES  25  13  60 W30G41    30.11R WCI   8          
SARATOGA       FAIR      30  12  47 S7        30.14F WCI  23          
LARAMIE        FAIR      32  17  54 W24G35    30.04R WCI  19          
CHEYENNE       FAIR      37  17  44 W31G41    29.98F WCI  24          
TORRINGTON     FAIR      41  21  44 W15G30    29.98R                  

$$
  

SKY/WX - Weather  TMP - Temperature  DP - Dew Point  RH - Humidity
WIND - Wind Direction/Speed PRES - Barometric Pressure VSB - Visibility
WCI - Wind Chill Index E13G22 Wind - East Wind 13 mph/Gusts of 22 mph

Trending Headlines

Trending Entertainment Headlines

Encampment Radar Loop

Use the map search tool if you want to place a location marker on the radar map...

Encampment Quick Facts

National Two Day Weather Forecast


E-mail the Encampment Weather Forecast

Voice your opinion or tell us about page issues...